Zurück zum Katalog

STARLINK-35434

AktivKommunikationVLEO
NORAD 66246·PAYLOAD·🇺🇸 United States

Gestartet Oct 29, 2025 von Cape Canaveral Space Force Station

Loading…

Nächste Überflüge (nächste 24 Stunden)

TLE

AktuellSource: CelesTrak SupGP

Epoche: Sep 14, 2026, 21:13 UTC

1 66246C 25245N   26257.88451389 -.00042627  00000+0 -13708-2 0  2570
2 66246  53.1575 123.7745 0001348  83.7842 211.2798 15.31721953    17

Verfolge STARLINK-35434 in Echtzeit mit AllMySat

Download on the App Store